Temp
61 61 61 61 60 60 60 60 60 60 60 60 60 60 61 60 60 56 49 62 64 70 72 74 73 75 72 68 73 73 52 50 57 60 67 77 69 78 83 79 81 82 82 85 89
60 60 60 60 61 60 59 60 59 60 60 59 59 60 60 60 53 51 64 69 70 72 69 67 66 68 61 64 66 60 52 58 68 70 69 74 73 75 77 76 76 79 84 87 87
60 60 60 60 60 60 59 59 59 59 59 59 59 59 59 58 50 62 72 70 71 73 74 71 68 66 57 58 62 58 56 65 71 75 73 71 71 75 72 66 72 74 82 82 80
59 60 60 59 59 59 59 59 59 59 60 60 59 59 59 52 53 73 75 71 73 73 74 69 64 55 55 56 61 53 67 69 73 76 72 70 75 73 72 75 82 81 80 81 77
59 59 59 59 59 59 59 59 59 59 59 59 58 59 53 48 54 74 74 72 73 73 70 66 61 59 54 59 59 56 65 70 74 74 70 72 72 74 74 79 81 83 82 78 74
58 58 59 59 59 58 58 58 58 58 58 58 58 59 49 48 71 75 73 72 73 70 69 66 66 66 62 62 60 65 65 67 70 71 68 69 71 70 76 79 80 79 79 79 76
58 58 58 58 58 58 58 57 57 57 58 59 59 59 51 54 75 72 73 69 73 74 70 73 73 66 65 63 66 65 59 64 66 68 67 72 66 68 77 78 76 76 76 78 78
58 58 58 58 58 58 58 57 57 58 58 59 60 55 47 69 67 69 71 72 75 75 75 77 75 68 65 66 66 58 55 49 62 68 70 67 57 70 76 74 73 75 75 76 75
58 57 58 58 58 58 57 56 57 58 59 60 52 48 50 72 68 74 75 74 75 76 75 82 72 65 65 56 50 51 46 51 59 65 65 64 59 69 73 72 71 72 73 74 74
58 57 57 57 58 57 56 56 57 57 58 60 61 49 59 67 76 78 76 78 73 72 70 69 60 55 52 49 41 47 47 53 54 62 61 60 60 70 70 70 68 70 70 71 73
58 57 56 57 57 56 52 49 50 50 53 52 57 58 71 77 81 75 78 76 73 66 55 59 52 47 53 55 57 56 53 52 59 66 59 57 58 62 67 64 65 66 66 68 71
58 57 57 56 56 55 54 46 61 61 54 60 63 64 72 75 69 73 78 67 63 55 59 53 48 57 61 60 58 57 53 53 58 64 60 57 58 62 65 64 66 67 67 68 68
56 56 56 56 55 51 48 51 63 64 53 63 64 64 67 71 68 68 73 67 61 55 54 49 57 65 62 59 58 56 53 53 54 61 59 56 52 57 63 65 68 68 67 67 68
56 56 56 55 50 51 48 58 59 62 47 59 63 68 71 71 64 77 76 69 61 57 57 54 64 62 59 58 60 53 62 61 58 52 44 55 39 50 58 60 64 67 65 66 66
56 56 56 56 47 49 63 63 61 60 34 63 66 76 72 66 67 68 76 68 59 60 57 54 56 56 55 59 61 56 63 59 56 49 44 48 41 47 55 58 60 63 66 68 72
56 56 56 51 50 51 59 60 64 46 38 58 66 65 63 66 68 69 69 71 68 59 58 58 64 62 60 66 64 65 56 53 48 44 36 45 43 43 51 55 60 65 64 64 63
56 55 53 57 51 61 60 59 43 38 58 56 58 61 59 59 63 66 62 58 52 44 45 53 55 60 65 56 59 56 47 37 34 34 34 48 43 45 55 60 61 61 61 62 61
54 52 52 56 56 61 60 50 36 49 52 64 64 61 55 59 59 61 57 52 58 56 48 44 44 57 62 55 48 49 45 36 29 30 35 47 39 48 58 61 64 66 61 63 62
52 52 54 60 62 60 54 41 43 48 60 62 62 55 56 59 57 57 52 51 55 56 46 43 47 61 62 63 57 50 45 47 38 37 32 38 46 54 57 58 60 61 61 58 60
46 50 56 67 65 60 50 47 52 62 66 62 50 54 47 50 51 50 50 56 56 58 53 46 40 53 57 59 59 51 56 39 35 27 26 35 40 43 51 52 57 56 56 57 58
49 52 63 67 64 54 45 50 58 66 65 59 52 50 51 49 50 47 50 55 58 56 56 48 42 44 51 47 43 44 41 43 42 40 31 28 35 49 49 52 54 57 58 59 57
46 48 65 66 52 51 45 56 59 63 66 62 59 56 51 51 49 48 50 53 61 57 48 47 41 36 42 51 53 48 41 41 33 34 38 36 36 51 52 54 56 56 60 62 62
43 47 63 64 45 48 52 59 64 60 59 58 56 58 55 48 43 50 53 59 60 54 48 46 37 30 35 42 47 43 44 41 41 36 34 33 34 56 56 54 58 57 61 60 61
44 45 52 55 53 53 52 55 57 63 60 59 56 57 51 47 47 45 53 56 58 53 57 50 38 35 29 36 38 38 42 45 42 32 34 36 39 47 51 53 53 57 56 55 58
46 47 50 45 49 49 50 54 54 53 58 58 52 52 49 40 43 44 48 50 53 56 47 42 33 37 40 42 43 42 43 44 39 39 33 40 41 48 51 48 49 53 55 55 55
45 45 49 47 52 50 47 50 52 54 53 51 48 51 49 41 42 39 42 42 42 45 41 40 32 37 36 43 43 40 44 45 46 46 44 45 44 51 54 52 53 51 53 54 54
48 50 47 47 50 47 48 51 52 54 53 55 51 48 45 46 47 45 46 47 46 43 39 38 34 31 30 39 39 32 41 44 45 43 42 36 40 47 47 49 47 48 51 51 53
MSLP
1017.93 1017.48 1017.03 1016.61 1016.29 1016.01 1015.65 1015.43 1015.29 1015.31 1015.26 1015.18 1015.21 1015.13 1015.00 1014.78 1014.25 1013.93 1013.19 1010.91 1010.82 1010.25 1010.58 1010.58 1010.91 1010.64 1010.89 1011.05 1010.67 1010.68 1011.55 1011.30 1010.10 1009.25 1007.64 1006.72 1006.51 1005.30 1004.10 1003.84 1003.57 1003.69 1004.06 1004.37 1004.51
1017.75 1017.41 1016.92 1016.51 1016.09 1015.80 1015.54 1015.20 1015.03 1014.84 1014.87 1014.95 1014.91 1014.73 1014.64 1014.42 1013.82 1012.66 1009.51 1009.39 1009.77 1009.88 1010.69 1010.73 1010.67 1010.58 1010.97 1010.79 1010.60 1010.75 1010.97 1010.22 1009.06 1008.33 1007.75 1006.86 1006.26 1005.79 1005.08 1005.00 1004.52 1004.35 1004.30 1004.29 1004.51
1017.67 1017.27 1016.93 1016.46 1016.00 1015.65 1015.38 1015.05 1014.80 1014.67 1014.63 1014.71 1014.62 1014.52 1014.41 1014.13 1013.29 1009.35 1007.24 1008.26 1008.90 1009.60 1009.95 1010.17 1010.53 1010.66 1010.90 1010.47 1010.41 1010.21 1010.04 1009.41 1008.27 1007.78 1007.81 1007.44 1006.64 1005.78 1005.51 1005.26 1005.03 1004.68 1004.86 1005.06 1005.04
1017.56 1017.13 1016.80 1016.40 1015.97 1015.57 1015.26 1014.98 1014.64 1014.57 1014.38 1014.24 1014.41 1014.36 1014.01 1013.89 1011.38 1007.19 1006.87 1007.25 1008.47 1009.23 1009.71 1009.83 1010.47 1010.75 1010.61 1010.45 1009.98 1010.01 1009.29 1008.90 1007.96 1007.56 1007.52 1007.15 1006.38 1005.98 1005.60 1005.25 1004.94 1004.68 1004.68 1004.91 1005.24
1017.30 1016.92 1016.57 1016.24 1015.82 1015.44 1015.12 1014.83 1014.56 1014.27 1014.22 1014.17 1014.19 1014.07 1013.92 1013.10 1010.03 1006.80 1006.64 1007.26 1008.52 1008.98 1009.31 1009.63 1010.18 1010.26 1010.11 1009.87 1009.80 1009.76 1009.09 1008.33 1007.52 1007.01 1006.93 1006.60 1006.30 1005.65 1005.40 1005.07 1004.72 1004.63 1004.50 1004.79 1005.17
1016.83 1016.68 1016.28 1015.99 1015.64 1015.18 1014.81 1014.53 1014.30 1014.08 1014.03 1014.00 1013.97 1013.86 1013.72 1011.67 1007.15 1006.78 1007.19 1007.91 1008.06 1008.75 1009.04 1009.30 1009.22 1009.29 1009.21 1009.15 1009.47 1008.60 1008.45 1008.09 1007.34 1006.82 1006.52 1006.51 1005.98 1005.69 1004.98 1004.77 1004.84 1004.82 1004.80 1004.82 1005.04
1016.49 1016.28 1015.99 1015.65 1015.43 1015.00 1014.49 1014.13 1013.95 1013.78 1013.59 1013.70 1013.87 1013.67 1013.01 1009.30 1006.92 1007.05 1007.30 1007.66 1007.79 1008.00 1008.39 1008.52 1008.40 1009.07 1008.70 1008.77 1008.37 1008.39 1008.60 1007.91 1007.24 1006.56 1006.37 1006.07 1005.89 1005.54 1005.08 1004.73 1004.71 1004.78 1004.79 1004.78 1004.84
1016.28 1015.91 1015.61 1015.23 1014.98 1014.70 1014.25 1013.84 1013.57 1013.48 1013.34 1013.27 1013.40 1013.24 1011.16 1007.44 1007.01 1007.36 1007.33 1007.54 1007.48 1007.63 1007.73 1007.62 1008.12 1008.59 1008.72 1008.33 1008.36 1008.53 1008.52 1008.09 1007.05 1006.25 1005.84 1005.96 1005.67 1005.36 1004.92 1005.03 1005.19 1004.86 1004.83 1004.80 1004.73
1016.06 1015.58 1015.17 1014.85 1014.60 1014.24 1013.91 1013.49 1013.13 1012.91 1013.00 1013.17 1013.39 1013.13 1009.53 1006.83 1007.07 1006.33 1006.54 1006.64 1006.99 1007.37 1007.46 1007.31 1007.70 1008.12 1008.10 1008.68 1009.25 1009.19 1008.97 1008.27 1007.18 1006.21 1006.24 1006.21 1005.95 1005.10 1004.72 1004.98 1005.05 1004.91 1004.77 1004.71 1004.70
1015.74 1015.37 1014.86 1014.44 1014.10 1013.93 1013.49 1012.89 1012.62 1012.80 1013.04 1013.15 1012.46 1012.33 1008.54 1006.07 1005.19 1005.42 1005.84 1006.21 1006.75 1007.02 1007.64 1007.72 1007.98 1008.48 1009.04 1009.64 1010.00 1009.59 1009.24 1008.41 1007.49 1006.52 1006.32 1006.18 1006.09 1005.17 1004.57 1004.68 1004.70 1004.91 1004.53 1004.51 1004.54
1015.24 1015.02 1014.66 1013.99 1013.70 1013.57 1013.44 1012.85 1012.75 1012.65 1011.97 1010.22 1009.22 1008.24 1006.45 1005.00 1004.46 1005.10 1005.37 1006.07 1006.38 1006.89 1007.77 1007.96 1008.70 1009.16 1008.99 1009.21 1009.17 1009.18 1009.01 1008.71 1007.49 1006.52 1006.57 1006.29 1006.11 1005.28 1004.42 1004.51 1004.77 1004.89 1004.55 1004.43 1004.33
1014.75 1014.49 1014.05 1013.57 1013.22 1013.21 1013.32 1012.40 1009.55 1009.18 1009.28 1008.27 1007.94 1007.42 1006.09 1005.66 1005.23 1004.79 1005.00 1006.10 1006.81 1007.50 1008.10 1008.72 1008.68 1008.48 1008.45 1008.65 1008.81 1008.87 1008.80 1008.41 1007.62 1006.56 1006.54 1006.12 1005.88 1005.35 1004.94 1004.61 1004.47 1004.53 1004.65 1004.60 1004.51
1014.22 1013.88 1013.43 1013.00 1012.69 1012.79 1012.25 1010.22 1008.35 1008.36 1008.06 1006.78 1006.30 1006.02 1005.14 1004.72 1004.59 1004.65 1005.04 1005.73 1006.57 1007.43 1007.90 1008.41 1007.79 1007.69 1008.04 1008.00 1008.33 1008.09 1008.10 1007.86 1007.43 1006.59 1006.46 1006.29 1006.17 1005.83 1005.10 1004.66 1004.36 1004.23 1004.20 1004.11 1004.14
1013.64 1013.20 1012.87 1012.38 1012.58 1011.88 1010.88 1007.81 1008.36 1008.94 1008.11 1006.00 1005.20 1004.23 1004.08 1004.00 1004.08 1003.95 1004.48 1005.42 1006.23 1007.04 1007.82 1008.22 1007.22 1007.40 1007.51 1007.62 1007.47 1007.38 1006.69 1006.73 1006.98 1007.24 1007.44 1007.06 1007.05 1006.49 1005.67 1005.26 1004.83 1004.38 1004.27 1004.09 1003.94
1013.05 1012.52 1012.24 1012.28 1011.91 1011.02 1007.83 1007.48 1008.03 1008.75 1007.49 1005.46 1004.24 1003.17 1003.49 1003.96 1003.89 1003.78 1004.08 1005.00 1005.96 1006.70 1007.54 1007.36 1007.02 1006.96 1006.90 1006.67 1006.64 1006.31 1006.06 1006.54 1007.09 1007.80 1008.26 1008.17 1008.29 1006.76 1006.12 1005.79 1005.05 1004.52 1004.25 1003.63 1002.87
1012.28 1011.66 1011.46 1011.43 1011.54 1008.54 1007.52 1007.98 1007.89 1008.36 1006.62 1004.81 1003.96 1003.67 1004.09 1004.14 1004.04 1003.85 1004.33 1004.95 1005.75 1006.62 1006.97 1007.04 1006.77 1006.60 1006.25 1006.15 1006.19 1006.25 1006.66 1007.27 1007.95 1008.94 1009.50 1009.13 1008.66 1007.41 1006.87 1006.04 1005.33 1004.53 1004.32 1003.83 1003.28
1011.35 1010.67 1011.05 1010.58 1009.09 1007.27 1007.42 1007.86 1008.25 1007.55 1006.44 1004.82 1004.15 1004.11 1004.38 1004.56 1004.54 1004.39 1005.02 1005.71 1006.43 1007.40 1007.44 1007.27 1006.80 1006.35 1006.06 1006.24 1006.66 1006.96 1007.86 1009.26 1010.07 1010.53 1010.48 1009.72 1009.14 1007.75 1006.61 1006.24 1005.85 1005.37 1004.81 1004.56 1004.95
1010.32 1009.37 1009.01 1008.61 1007.51 1007.80 1007.53 1008.00 1008.01 1007.26 1005.90 1004.41 1003.90 1004.25 1004.65 1004.70 1005.00 1005.16 1005.72 1006.51 1006.96 1007.53 1008.12 1008.04 1007.53 1006.76 1006.79 1007.08 1007.51 1008.04 1008.95 1010.61 1011.55 1012.00 1011.52 1010.48 1009.46 1007.76 1007.20 1006.66 1006.12 1006.04 1006.36 1005.10 1005.87
1009.84 1008.70 1008.32 1006.72 1006.90 1007.71 1008.28 1008.02 1007.86 1007.06 1005.22 1004.17 1004.11 1004.46 1004.84 1005.03 1005.27 1005.83 1006.46 1006.95 1007.21 1007.35 1008.38 1008.53 1008.10 1007.56 1007.48 1007.64 1007.82 1008.61 1009.73 1010.91 1012.15 1012.91 1012.58 1011.37 1009.66 1008.15 1007.39 1007.30 1006.96 1007.13 1007.12 1007.03 1007.01
1010.43 1009.20 1007.57 1005.67 1006.44 1007.55 1008.21 1007.78 1006.71 1005.58 1004.29 1004.31 1004.86 1005.28 1005.75 1006.13 1006.28 1006.61 1006.98 1007.44 1007.68 1007.85 1007.99 1009.03 1009.20 1008.75 1008.36 1008.09 1008.46 1009.11 1010.00 1011.39 1012.85 1013.57 1013.20 1011.89 1010.43 1008.97 1008.55 1008.57 1008.09 1007.97 1007.89 1007.80 1007.59
1010.16 1008.84 1006.25 1005.56 1006.44 1007.85 1008.12 1007.12 1005.98 1004.87 1004.38 1004.62 1005.14 1005.71 1006.28 1006.85 1007.11 1007.46 1007.69 1007.98 1008.06 1008.41 1008.60 1009.51 1010.45 1010.61 1009.96 1009.88 1010.12 1010.53 1010.96 1011.78 1012.62 1013.76 1013.94 1012.92 1010.79 1009.16 1009.19 1009.05 1008.95 1008.59 1008.22 1007.94 1007.86
1010.78 1008.90 1006.15 1005.92 1007.23 1007.92 1007.81 1006.63 1005.48 1005.05 1004.67 1004.93 1005.33 1005.91 1006.66 1007.22 1007.67 1007.92 1008.07 1008.19 1008.38 1008.86 1010.06 1010.88 1011.52 1012.05 1011.61 1010.93 1010.87 1011.30 1012.00 1012.74 1013.78 1014.59 1014.25 1013.34 1010.81 1009.89 1009.67 1009.30 1008.94 1008.61 1008.31 1007.86 1007.54
1011.91 1009.77 1006.37 1006.40 1007.49 1007.80 1007.43 1006.34 1005.46 1005.33 1005.39 1005.67 1006.15 1006.40 1006.98 1007.89 1008.47 1008.51 1008.49 1008.77 1008.89 1009.76 1010.75 1011.54 1012.66 1013.42 1012.90 1012.41 1011.88 1012.33 1012.78 1013.39 1013.99 1014.63 1014.47 1013.82 1011.31 1009.82 1009.73 1009.48 1009.05 1008.65 1008.09 1008.04 1007.71
1012.27 1010.50 1008.36 1007.44 1007.56 1007.39 1007.32 1006.44 1006.04 1005.82 1005.98 1006.28 1006.87 1007.15 1007.83 1008.57 1008.79 1009.25 1009.27 1009.38 1009.65 1010.44 1011.25 1011.92 1013.51 1014.26 1014.36 1013.90 1013.85 1013.46 1013.19 1013.38 1013.75 1014.52 1014.03 1012.74 1011.65 1010.86 1010.01 1009.54 1009.01 1008.51 1008.36 1007.91 1008.01
1012.09 1010.98 1009.92 1008.95 1008.29 1007.84 1007.47 1007.00 1006.66 1006.69 1006.69 1006.99 1007.67 1008.16 1008.74 1009.65 1009.89 1010.18 1010.43 1010.69 1010.99 1011.46 1012.20 1013.02 1014.54 1014.89 1014.81 1014.42 1014.02 1013.70 1013.37 1013.07 1013.15 1013.12 1012.96 1012.04 1011.28 1010.31 1009.89 1009.41 1008.80 1008.75 1008.59 1008.45 1008.70
1012.14 1011.66 1010.63 1009.78 1008.80 1008.12 1007.74 1007.40 1007.39 1007.52 1007.76 1008.46 1008.99 1009.29 1009.50 1010.39 1010.86 1011.17 1011.31 1011.48 1011.89 1012.50 1013.15 1014.11 1015.02 1015.32 1015.30 1014.61 1014.12 1013.42 1012.58 1012.21 1011.95 1011.84 1011.62 1011.36 1010.86 1010.27 1009.78 1009.49 1009.27 1009.30 1009.33 1009.27 1009.12
1012.46 1011.80 1011.47 1010.36 1009.43 1008.73 1008.25 1008.04 1008.36 1008.19 1009.18 1009.17 1009.68 1009.98 1010.77 1011.27 1011.21 1011.30 1011.56 1011.86 1012.21 1012.85 1013.77 1014.64 1015.34 1015.85 1015.62 1014.94 1014.24 1013.11 1011.74 1011.00 1010.88 1011.26 1011.23 1011.04 1010.99 1010.75 1010.41 1010.26 1010.07 1009.85 1009.74 1009.68 1009.40
Wind_Speed
15 15 14 13 10 10 8 8 9 9 9 9 9 10 10 11 12 3 9 13 12 15 3 2 6 4 4 4 4 3 2 5 7 5 8 8 5 6 7 3 2 3 8 5 5
15 15 15 14 13 11 9 8 8 8 8 9 8 9 9 11 4 9 14 17 18 7 4 5 4 5 3 5 3 5 5 7 6 3 5 11 9 2 6 7 5 4 4 4 5
15 14 15 14 14 13 11 9 8 8 8 7 7 7 8 7 3 10 10 24 20 14 7 7 0 1 4 3 5 4 7 5 10 12 5 5 7 4 3 0 2 2 3 3 4
15 14 14 14 13 13 12 11 8 8 8 6 6 6 7 1 4 3 5 23 17 11 5 4 4 3 5 6 6 2 6 8 14 15 5 7 4 3 4 6 6 4 2 5 5
15 14 14 14 13 12 12 11 10 8 8 5 4 4 3 1 11 5 7 21 12 7 8 6 5 5 5 7 4 5 9 9 14 14 8 6 9 9 6 6 8 6 6 4 3
16 15 15 14 14 13 12 12 11 8 7 5 3 2 1 3 6 7 10 15 11 11 7 7 8 9 4 8 8 7 9 12 11 13 6 6 6 3 6 6 7 5 8 9 6
16 16 16 15 16 15 14 12 10 10 7 5 3 4 3 14 3 5 10 8 7 10 7 11 10 1 0 7 6 7 6 7 8 10 8 8 6 6 9 7 9 10 8 9 9
15 17 17 16 17 17 16 15 14 13 9 4 3 3 9 6 4 6 4 4 7 7 7 6 9 8 6 4 7 3 3 2 7 6 6 7 9 8 10 9 11 11 9 8 9
15 17 18 18 17 19 16 15 16 12 6 7 3 2 11 9 6 10 10 6 10 7 7 10 4 3 4 4 6 6 2 4 9 4 3 6 10 12 10 9 11 10 10 10 9
17 15 18 18 17 15 14 18 7 2 3 5 6 3 7 5 5 8 9 11 5 6 4 6 5 3 4 5 5 4 2 5 7 5 3 9 11 20 12 11 11 10 11 9 9
19 18 16 18 16 12 7 4 4 0 5 11 9 5 3 5 7 5 7 7 4 5 4 2 4 5 9 7 7 6 5 8 11 11 4 6 7 10 10 5 7 8 7 9 10
20 19 18 16 14 10 3 5 6 4 5 19 13 11 12 7 3 5 7 6 6 5 4 2 7 11 9 7 8 8 10 12 8 10 7 4 7 5 5 5 8 9 8 9 7
18 18 18 15 11 3 7 12 1 12 1 4 9 7 7 4 8 9 11 6 5 5 5 7 10 10 9 10 8 9 9 6 8 6 2 2 6 6 7 4 6 5 8 7 13
18 18 18 15 1 3 6 11 11 2 4 3 6 6 4 4 2 6 10 8 3 8 6 7 15 11 7 9 8 16 12 8 4 2 5 2 6 4 7 9 6 10 9 10 11
19 20 18 8 5 4 6 4 10 3 3 5 5 3 5 7 2 4 6 4 8 7 7 8 3 2 3 3 3 9 6 6 1 1 3 7 2 8 5 10 10 10 11 13 16
22 19 17 2 5 13 9 6 3 2 3 4 5 7 5 3 3 4 5 5 4 2 1 5 3 3 3 7 3 6 1 5 5 4 2 5 4 2 5 6 8 9 7 10 3
26 22 8 2 7 2 4 4 4 0 4 3 5 6 5 5 4 8 5 5 5 3 4 5 4 2 4 2 7 10 7 4 5 4 5 3 3 8 3 4 5 5 6 12 12
29 23 5 7 7 3 5 6 3 5 6 6 6 8 6 6 4 5 6 4 3 6 2 3 2 3 2 4 0 2 5 6 4 4 4 5 4 5 3 5 11 11 10 13 10
24 3 2 6 6 3 5 5 3 6 8 2 6 4 3 3 5 3 4 2 3 9 8 4 4 2 11 5 3 4 4 4 4 3 2 4 6 6 4 8 10 10 9 9 8
4 4 5 6 8 4 4 0 4 11 4 5 3 3 4 4 5 4 3 4 4 6 1 1 1 5 6 5 4 4 3 1 3 2 5 4 4 6 4 7 9 8 8 9 9
3 3 5 6 5 5 2 5 4 4 5 4 3 3 4 3 4 3 2 3 4 3 8 4 4 6 4 3 2 6 5 4 4 4 4 3 6 4 6 5 6 4 5 6 6
4 2 3 4 4 2 3 3 2 2 4 5 3 2 3 3 3 2 1 3 3 2 3 3 4 0 4 7 5 3 1 3 5 3 3 2 8 3 4 7 8 6 6 8 8
3 4 3 5 3 1 4 6 4 3 5 4 7 3 3 3 4 1 4 4 6 4 4 0 3 3 9 6 6 6 3 3 4 4 6 5 5 5 13 11 9 12 15 6 4
2 3 5 4 1 3 3 3 3 4 5 5 3 6 5 2 1 2 3 2 5 5 8 7 3 6 6 4 1 6 7 5 7 4 4 11 17 16 19 13 10 14 8 7 5
2 3 1 2 3 0 1 1 4 2 3 4 6 5 5 3 3 4 4 4 6 8 4 6 4 3 4 6 5 8 12 13 9 10 11 11 17 16 8 2 3 1 5 8 6
2 4 5 4 5 2 2 5 6 4 4 4 6 4 6 4 2 2 2 2 2 2 3 3 3 3 4 8 10 13 14 13 15 13 13 14 14 4 2 1 5 7 6 5 5
4 4 3 5 4 1 1 3 5 3 7 7 4 4 7 3 1 3 5 5 5 5 3 4 6 3 4 4 7 8 7 8 6 2 3 2 1 3 5 6 4 3 3 5 7
Wind_Direction
340 340 345 347 340 329 310 296 288 287 285 289 291 294 300 306 310 228 228 215 197 243 274 36 205 205 132 221 213 154 101 219 227 187 271 309 340 321 299 109 54 136 130 179 137
340 337 337 341 346 340 325 311 297 292 293 291 292 298 308 317 280 245 229 212 212 230 161 206 242 151 175 203 224 142 185 234 217 229 269 320 311 245 21 5 0 71 58 84 49
337 338 335 337 339 343 335 319 307 292 284 286 297 306 311 325 301 246 210 197 205 199 197 169 61 108 211 160 219 194 203 232 274 252 239 254 298 304 140 234 211 294 156 144 87
334 335 334 332 332 335 335 327 310 293 283 290 299 306 312 273 209 246 306 189 179 170 165 157 155 190 180 198 217 253 242 224 255 257 250 252 251 239 186 224 194 221 237 118 107
332 332 332 329 327 326 327 325 318 302 291 282 294 314 347 133 250 272 45 156 154 156 186 176 163 179 178 191 228 176 259 257 251 258 237 269 257 243 202 251 278 268 269 233 172
327 328 327 326 324 321 320 319 317 312 283 273 269 298 184 254 234 153 113 149 165 168 187 159 201 203 245 208 158 220 226 253 266 261 243 211 257 215 265 241 273 254 253 258 203
322 323 324 327 323 321 318 315 313 304 300 269 247 240 250 239 9 135 143 173 167 179 173 210 222 152 38 323 241 241 252 286 259 248 226 187 267 219 247 261 259 272 252 250 234
324 321 320 326 323 319 315 313 307 298 277 235 239 287 249 251 246 292 203 198 196 201 218 193 198 213 179 239 356 346 93 310 280 225 244 125 258 263 248 238 247 253 255 247 239
322 319 318 321 322 318 312 303 299 293 237 181 155 203 265 293 182 219 177 200 191 208 235 259 250 203 46 73 6 6 245 290 286 217 252 159 263 255 252 233 236 244 243 227 226
323 320 317 317 316 316 310 298 275 73 161 182 263 335 272 232 198 164 202 208 173 202 251 185 56 54 34 81 215 242 288 280 266 289 290 277 263 264 233 221 228 242 250 219 199
327 323 319 316 316 315 332 350 85 190 234 198 190 234 279 261 133 180 170 165 190 121 159 200 88 216 227 203 205 238 242 254 275 269 234 242 254 294 253 222 233 243 221 205 208
325 323 321 312 311 301 275 233 220 116 264 225 237 247 279 275 272 190 139 147 132 166 171 28 217 222 221 224 226 241 251 270 282 271 189 301 306 300 312 245 200 208 222 235 251
315 314 317 314 314 263 216 233 348 10 178 248 199 205 230 178 198 190 150 179 142 158 174 182 243 215 231 260 246 246 222 226 215 283 216 286 319 324 302 302 301 246 227 235 222
314 320 322 322 251 214 232 246 238 51 41 245 184 247 200 166 246 173 177 149 174 186 199 211 244 242 259 245 246 253 237 226 252 40 269 88 276 302 281 303 270 271 278 256 236
311 318 320 308 282 237 228 122 134 95 110 153 163 193 162 154 161 204 149 130 183 211 127 241 65 20 260 208 293 239 232 229 196 121 49 327 87 269 335 305 290 287 286 286 251
309 310 324 43 199 242 304 330 106 60 124 224 141 176 125 184 275 144 115 95 131 92 236 232 238 231 226 294 289 294 44 39 62 90 16 249 190 275 267 273 301 302 339 335 137
309 308 294 229 229 348 280 96 62 121 346 199 178 150 166 165 212 138 130 113 121 78 300 352 279 247 237 349 12 35 48 357 346 353 219 20 358 227 294 345 297 272 109 70 57
316 312 187 207 225 337 5 52 95 355 265 263 144 141 177 158 201 149 135 152 221 163 129 162 340 104 344 132 78 21 138 148 233 212 254 342 246 255 116 10 12 58 334 81 85
319 319 234 247 215 130 66 59 173 219 245 85 48 80 145 40 97 107 136 190 233 176 168 184 242 63 68 39 77 320 61 156 129 346 105 238 283 319 52 48 40 54 50 40 49
311 339 273 239 123 68 72 133 240 220 7 57 104 55 87 360 66 73 38 345 65 45 66 215 22 356 1 33 40 119 203 16 16 330 280 292 253 233 36 51 38 32 14 20 15
326 22 263 131 80 62 186 227 223 35 49 57 95 82 81 98 72 55 58 12 58 33 61 76 93 297 30 15 59 1 0 17 98 125 217 263 256 201 151 125 99 61 8 345 348
337 37 298 87 66 97 244 271 163 98 30 57 104 119 129 104 75 121 220 110 70 72 70 334 131 324 261 277 283 178 95 95 130 283 300 293 254 44 91 11 342 311 225 223 215
346 277 313 101 154 243 265 265 64 75 44 44 35 52 91 120 97 39 79 106 97 80 139 261 22 22 343 4 2 70 103 122 98 98 230 258 246 330 330 317 285 285 291 301 234
357 350 328 48 200 113 301 313 110 45 54 76 45 48 77 82 152 117 115 212 104 94 110 83 101 159 197 233 190 312 312 239 193 180 228 241 282 280 279 292 248 276 267 265 259
170 279 196 327 334 23 113 286 136 108 88 62 18 73 121 83 27 75 31 43 51 138 75 105 181 195 252 272 294 286 273 274 250 230 227 264 257 270 286 313 357 296 340 59 51
56 36 337 289 289 13 9 23 90 58 55 64 94 52 65 87 87 124 59 81 200 230 108 19 209 163 258 244 258 275 281 277 264 261 259 262 266 332 227 38 27 22 53 35 13
319 330 103 296 325 51 221 48 55 90 37 67 116 91 76 34 356 235 184 188 198 148 130 141 137 113 262 347 321 283 238 256 232 134 213 218 212 307 1 348 347 78 40 352 327